Temp
-9 -9 -9 -9 -9 -9 -9 -9 -9 -9 -9 -9 -9 -9 -10 -10 -9 -10 -10 -10 -10 -9 -10 -10 -10 -10 -10 -10 -10 -10 -10 -10 -10 -11 -11 -10 -10 -10 -10 -10 -10 -10 -10 -10 -10
-10 -10 -10 -10 -9 -10 -9 -9 -9 -9 -10 -9 -10 -10 -10 -10 -10 -10 -10 -10 -10 -9 -10 -10 -10 -11 -10 -11 -10 -10 -10 -11 -11 -11 -10 -11 -11 -11 -10 -11 -10 -11 -11 -10 -10
-10 -10 -10 -10 -10 -10 -10 -10 -10 -10 -10 -10 -10 -10 -10 -10 -10 -10 -10 -10 -10 -10 -10 -10 -10 -11 -11 -10 -11 -10 -10 -10 -11 -11 -10 -11 -11 -11 -11 -11 -12 -12 -12 -12 -11
-11 -11 -11 -11 -11 -11 -11 -11 -11 -11 -11 -11 -11 -11 -11 -11 -10 -11 -11 -11 -10 -10 -11 -10 -10 -10 -11 -11 -11 -11 -11 -11 -10 -10 -11 -10 -11 -11 -11 -11 -13 -12 -12 -11 -11
-12 -11 -12 -11 -11 -11 -11 -11 -12 -12 -12 -12 -11 -12 -12 -11 -11 -11 -11 -11 -11 -11 -11 -11 -10 -10 -11 -11 -11 -11 -11 -11 -11 -11 -11 -11 -10 -10 -10 -11 -12 -12 -12 -12 -11
-12 -12 -13 -13 -12 -12 -12 -12 -12 -12 -12 -12 -12 -12 -12 -12 -11 -11 -11 -11 -11 -11 -11 -11 -11 -11 -11 -11 -11 -11 -11 -11 -11 -11 -11 -11 -10 -11 -11 -11 -11 -11 -12 -12 -11
-13 -13 -13 -13 -14 -13 -13 -12 -12 -13 -13 -12 -12 -12 -12 -12 -12 -12 -12 -12 -11 -11 -12 -12 -12 -12 -12 -11 -11 -11 -11 -11 -11 -11 -11 -11 -11 -11 -11 -11 -11 -11 -12 -12 -12
-13 -13 -13 -14 -14 -14 -13 -13 -13 -13 -13 -13 -13 -13 -13 -13 -13 -12 -12 -12 -12 -11 -12 -12 -12 -12 -12 -12 -12 -11 -11 -11 -12 -12 -12 -11 -11 -12 -12 -12 -12 -12 -12 -11 -12
-13 -14 -14 -15 -15 -15 -14 -13 -13 -13 -13 -13 -13 -13 -13 -13 -13 -13 -13 -12 -13 -13 -12 -13 -13 -12 -12 -12 -12 -12 -12 -12 -12 -13 -12 -11 -11 -12 -12 -12 -12 -13 -13 -13 -13
-14 -15 -16 -15 -16 -16 -14 -14 -14 -13 -13 -13 -13 -13 -13 -13 -13 -13 -13 -13 -13 -13 -13 -13 -13 -13 -12 -13 -12 -13 -13 -13 -13 -16 -15 -13 -12 -12 -12 -13 -14 -14 -14 -14 -14
-15 -16 -17 -17 -16 -16 -15 -15 -15 -14 -13 -13 -14 -13 -14 -14 -13 -13 -13 -13 -13 -13 -13 -13 -13 -13 -13 -13 -12 -12 -13 -13 -14 -15 -16 -14 -14 -13 -14 -14 -15 -15 -15 -15 -15
-15 -15 -16 -16 -16 -16 -15 -15 -15 -15 -14 -14 -14 -14 -14 -14 -13 -13 -13 -13 -14 -14 -14 -13 -13 -13 -13 -13 -13 -14 -14 -14 -13 -15 -16 -14 -15 -14 -15 -15 -15 -16 -15 -15 -15
-16 -16 -16 -16 -16 -16 -16 -16 -16 -16 -15 -15 -15 -14 -14 -14 -14 -14 -14 -14 -14 -14 -14 -14 -14 -14 -14 -14 -14 -15 -16 -16 -16 -15 -15 -16 -15 -16 -16 -16 -18 -19 -19 -17 -16
-16 -16 -17 -17 -17 -16 -16 -16 -16 -16 -16 -15 -15 -14 -14 -15 -14 -15 -15 -15 -14 -15 -15 -14 -16 -16 -16 -15 -17 -16 -17 -17 -17 -17 -17 -16 -17 -17 -16 -17 -19 -20 -19 -16 -16
-17 -17 -18 -17 -17 -17 -17 -17 -17 -18 -17 -16 -15 -14 -15 -15 -15 -15 -16 -16 -15 -16 -16 -16 -16 -17 -16 -17 -18 -18 -18 -18 -18 -18 -18 -16 -19 -18 -17 -18 -19 -18 -17 -18 -19
-17 -17 -18 -17 -17 -17 -17 -18 -18 -18 -17 -17 -15 -15 -15 -16 -17 -16 -16 -17 -17 -17 -18 -17 -18 -17 -18 -18 -18 -18 -18 -19 -19 -19 -19 -18 -19 -17 -19 -19 -19 -19 -20 -20 -19
-18 -18 -18 -18 -18 -18 -18 -18 -19 -19 -17 -18 -16 -15 -16 -17 -18 -17 -17 -17 -18 -18 -19 -18 -18 -18 -18 -18 -19 -19 -19 -19 -19 -19 -20 -18 -21 -20 -20 -19 -19 -20 -21 -21 -20
-19 -20 -20 -20 -19 -19 -20 -19 -20 -17 -18 -20 -19 -17 -17 -18 -18 -17 -18 -18 -18 -19 -19 -20 -20 -20 -20 -19 -19 -19 -20 -21 -20 -20 -19 -19 -20 -21 -21 -18 -20 -20 -20 -21 -20
-20 -20 -20 -20 -20 -20 -21 -21 -19 -18 -20 -20 -20 -18 -18 -19 -19 -19 -18 -19 -20 -21 -19 -20 -19 -20 -20 -20 -20 -20 -20 -21 -21 -20 -20 -19 -20 -21 -19 -20 -21 -21 -22 -21 -21
-21 -21 -21 -21 -20 -21 -21 -21 -19 -20 -20 -20 -20 -20 -20 -20 -20 -19 -19 -20 -20 -20 -20 -20 -20 -20 -21 -21 -20 -20 -21 -21 -21 -21 -21 -21 -22 -22 -22 -22 -22 -22 -22 -22 -21
-22 -22 -21 -21 -21 -20 -21 -21 -20 -21 -21 -20 -21 -21 -20 -21 -23 -20 -20 -21 -20 -20 -21 -21 -21 -20 -20 -21 -21 -21 -21 -21 -22 -22 -22 -21 -22 -23 -22 -22 -22 -22 -22 -22 -21
-23 -23 -22 -22 -22 -22 -21 -21 -21 -21 -21 -20 -21 -21 -21 -21 -21 -22 -21 -22 -21 -21 -21 -21 -20 -20 -20 -21 -21 -21 -22 -22 -22 -22 -22 -23 -22 -23 -23 -22 -22 -22 -22 -22 -21
-23 -23 -23 -23 -23 -22 -21 -21 -22 -21 -22 -21 -21 -21 -21 -21 -22 -22 -21 -21 -21 -21 -21 -20 -20 -20 -21 -22 -22 -22 -22 -22 -23 -24 -23 -24 -23 -23 -23 -23 -23 -22 -22 -21 -21
-24 -24 -23 -23 -22 -22 -21 -22 -23 -22 -22 -22 -21 -21 -21 -21 -22 -22 -22 -21 -21 -21 -21 -21 -21 -21 -22 -22 -22 -22 -24 -24 -23 -24 -24 -24 -23 -23 -23 -23 -22 -22 -22 -22 -21
-24 -24 -23 -23 -22 -22 -22 -21 -22 -22 -22 -22 -21 -21 -21 -22 -22 -22 -22 -21 -20 -22 -21 -21 -21 -22 -22 -22 -22 -22 -23 -24 -24 -24 -24 -24 -24 -23 -23 -22 -22 -22 -22 -21 -22
-25 -24 -24 -23 -23 -23 -22 -22 -22 -22 -22 -22 -22 -22 -22 -22 -22 -22 -22 -21 -21 -22 -22 -22 -22 -22 -23 -22 -23 -23 -24 -24 -24 -24 -24 -23 -23 -23 -22 -22 -22 -22 -22 -21 -21
-25 -24 -24 -23 -23 -22 -22 -22 -22 -23 -22 -22 -22 -22 -22 -22 -22 -22 -21 -22 -22 -22 -22 -22 -22 -22 -23 -23 -23 -23 -23 -23 -23 -23 -23 -23 -23 -22 -22 -22 -22 -22 -22 -21 -22
Height
5801 5802 5803 5803 5805 5805 5805 5805 5805 5805 5804 5804 5804 5803 5803 5802 5801 5802 5802 5801 5802 5801 5802 5801 5802 5803 5804 5805 5805 5806 5804 5807 5807 5805 5801 5803 5804 5804 5805 5804 5805 5804 5802 5802 5800
5792 5793 5794 5795 5796 5797 5796 5796 5797 5797 5796 5796 5796 5797 5796 5796 5797 5795 5796 5796 5796 5797 5796 5796 5794 5796 5798 5798 5799 5800 5799 5801 5799 5797 5795 5798 5797 5797 5798 5797 5797 5798 5797 5794 5792
5783 5784 5785 5786 5786 5788 5788 5787 5788 5789 5789 5789 5789 5791 5791 5790 5792 5792 5791 5792 5791 5792 5790 5789 5789 5789 5790 5791 5793 5793 5794 5794 5792 5790 5788 5791 5790 5788 5790 5791 5788 5787 5787 5786 5784
5773 5774 5774 5775 5776 5778 5779 5779 5780 5781 5782 5782 5783 5784 5786 5784 5787 5788 5787 5786 5787 5786 5785 5784 5783 5783 5783 5784 5784 5785 5787 5786 5785 5784 5783 5783 5782 5783 5782 5783 5779 5779 5777 5777 5777
5762 5763 5763 5763 5765 5768 5770 5771 5772 5773 5774 5775 5777 5778 5779 5781 5781 5780 5783 5781 5780 5781 5779 5778 5778 5777 5777 5777 5777 5778 5779 5779 5778 5777 5777 5774 5775 5774 5775 5773 5770 5767 5767 5769 5767
5753 5752 5750 5752 5753 5757 5759 5762 5764 5766 5767 5768 5770 5771 5772 5773 5775 5775 5776 5776 5775 5776 5775 5773 5772 5771 5770 5770 5770 5771 5771 5771 5771 5771 5769 5768 5768 5767 5765 5762 5763 5764 5760 5759 5758
5742 5741 5740 5742 5742 5746 5749 5753 5755 5757 5759 5761 5763 5764 5766 5766 5767 5769 5768 5768 5769 5769 5768 5767 5767 5766 5764 5763 5763 5763 5762 5762 5761 5760 5758 5759 5759 5758 5754 5752 5754 5753 5751 5749 5747
5731 5729 5728 5731 5734 5736 5741 5744 5748 5750 5751 5753 5755 5756 5758 5760 5759 5759 5760 5761 5761 5762 5761 5759 5759 5758 5756 5755 5755 5752 5753 5752 5752 5748 5746 5746 5747 5746 5742 5740 5739 5740 5742 5739 5737
5718 5720 5720 5721 5724 5728 5732 5736 5738 5740 5742 5744 5746 5747 5749 5752 5752 5752 5751 5752 5753 5753 5751 5750 5749 5748 5747 5746 5746 5743 5743 5741 5739 5735 5733 5734 5736 5735 5732 5729 5728 5727 5728 5729 5726
5706 5707 5709 5712 5714 5717 5722 5725 5727 5730 5733 5735 5736 5740 5740 5741 5741 5744 5742 5743 5742 5742 5743 5743 5739 5737 5737 5735 5735 5731 5730 5730 5728 5728 5719 5720 5720 5718 5714 5716 5719 5716 5712 5712 5714
5699 5698 5700 5701 5705 5709 5711 5713 5717 5718 5722 5727 5728 5730 5731 5728 5730 5734 5733 5734 5733 5732 5731 5729 5728 5729 5726 5723 5722 5720 5719 5718 5720 5720 5710 5712 5710 5711 5706 5705 5705 5703 5700 5695 5689
5686 5690 5691 5694 5696 5700 5702 5702 5704 5705 5708 5714 5718 5720 5719 5720 5719 5721 5721 5723 5722 5721 5718 5718 5716 5714 5714 5712 5710 5709 5705 5706 5707 5704 5697 5700 5695 5707 5697 5696 5691 5686 5684 5679 5677
5674 5677 5681 5684 5687 5689 5693 5693 5693 5693 5694 5702 5705 5710 5710 5711 5714 5713 5708 5709 5709 5706 5706 5706 5704 5701 5701 5699 5696 5698 5692 5693 5690 5691 5687 5683 5682 5688 5689 5685 5677 5667 5660 5662 5665
5660 5665 5668 5671 5676 5680 5684 5681 5680 5681 5681 5692 5690 5694 5698 5699 5701 5701 5697 5698 5697 5696 5693 5692 5692 5691 5690 5689 5685 5684 5680 5678 5676 5673 5672 5678 5661 5666 5679 5669 5666 5643 5643 5654 5655
5647 5653 5654 5655 5662 5668 5672 5669 5669 5671 5667 5678 5678 5683 5684 5686 5686 5690 5687 5684 5685 5683 5681 5686 5681 5678 5677 5679 5675 5672 5669 5664 5661 5661 5656 5673 5650 5653 5661 5654 5641 5637 5635 5642 5640
5633 5638 5638 5644 5650 5653 5655 5654 5656 5657 5657 5663 5669 5674 5673 5671 5671 5674 5675 5673 5672 5672 5670 5671 5668 5665 5666 5663 5661 5658 5656 5654 5651 5649 5646 5656 5645 5646 5641 5639 5633 5629 5628 5630 5630
5617 5621 5624 5629 5637 5638 5639 5641 5641 5643 5656 5651 5656 5661 5663 5660 5660 5662 5662 5662 5661 5660 5660 5659 5658 5652 5651 5652 5650 5648 5644 5641 5639 5640 5638 5643 5640 5627 5627 5628 5624 5622 5620 5618 5618
5601 5603 5608 5615 5623 5623 5625 5627 5623 5644 5645 5643 5646 5647 5651 5649 5649 5649 5651 5651 5648 5648 5646 5646 5649 5643 5639 5639 5640 5639 5636 5632 5627 5629 5628 5631 5629 5620 5615 5613 5615 5616 5612 5607 5604
5581 5587 5595 5600 5607 5609 5611 5609 5619 5634 5636 5632 5633 5638 5642 5641 5639 5639 5640 5642 5640 5637 5635 5635 5639 5631 5634 5629 5629 5631 5627 5624 5617 5620 5616 5618 5617 5608 5604 5608 5607 5602 5600 5598 5593
5566 5573 5583 5588 5594 5594 5592 5597 5613 5620 5622 5625 5624 5630 5631 5632 5629 5630 5630 5630 5631 5629 5627 5627 5625 5626 5624 5621 5621 5619 5619 5614 5610 5607 5605 5607 5608 5603 5598 5595 5592 5591 5590 5588 5582
5550 5556 5570 5574 5580 5580 5577 5593 5604 5609 5612 5615 5617 5620 5622 5623 5622 5620 5619 5618 5623 5621 5619 5616 5615 5619 5615 5612 5609 5607 5604 5603 5600 5599 5596 5595 5595 5595 5593 5590 5586 5584 5585 5581 5576
5535 5541 5556 5560 5565 5568 5577 5592 5595 5598 5600 5606 5607 5611 5611 5615 5613 5613 5613 5610 5612 5612 5611 5606 5605 5604 5603 5602 5597 5596 5596 5592 5588 5590 5588 5585 5586 5587 5584 5582 5580 5581 5580 5577 5572
5520 5525 5538 5547 5548 5562 5574 5574 5583 5587 5590 5597 5599 5603 5603 5604 5604 5605 5606 5602 5602 5603 5599 5598 5596 5593 5592 5593 5590 5587 5586 5584 5582 5581 5582 5581 5580 5579 5578 5578 5577 5577 5576 5572 5568
5506 5507 5520 5534 5546 5558 5564 5567 5572 5577 5582 5587 5591 5593 5593 5595 5596 5597 5596 5594 5593 5593 5590 5589 5586 5585 5585 5582 5582 5579 5579 5578 5578 5577 5578 5576 5573 5573 5575 5575 5574 5572 5570 5568 5566
5486 5492 5515 5527 5540 5550 5553 5559 5565 5571 5575 5577 5580 5583 5585 5587 5587 5586 5586 5584 5584 5584 5580 5579 5579 5577 5578 5577 5574 5574 5575 5574 5573 5573 5572 5573 5569 5571 5570 5570 5568 5567 5565 5565 5563
5470 5488 5507 5522 5529 5535 5541 5550 5556 5561 5565 5569 5571 5574 5576 5577 5578 5577 5576 5575 5576 5573 5572 5571 5573 5572 5572 5571 5570 5570 5570 5569 5568 5569 5568 5567 5565 5567 5566 5565 5564 5563 5563 5562 5561
5462 5486 5497 5510 5518 5526 5536 5544 5549 5554 5557 5560 5563 5565 5567 5570 5569 5569 5568 5567 5566 5565 5566 5567 5567 5566 5568 5566 5566 5567 5567 5565 5564 5563 5562 5562 5562 5562 5562 5562 5562 5561 5561 5561 5560
Wind_Speed
46 45 44 44 42 43 44 44 43 44 45 45 45 44 39 35 33 26 26 26 25 25 25 20 20 21 24 23 24 27 30 29 29 30 37 39 40 39 37 39 39 41 41 40 42
48 48 47 46 46 45 47 46 46 47 44 44 41 40 35 34 31 27 25 24 23 25 24 22 20 18 22 24 25 26 30 28 32 35 39 36 37 39 38 37 38 39 41 43 43
51 50 51 50 50 48 48 48 47 46 43 39 38 37 34 31 33 29 26 26 24 26 26 24 23 21 21 24 25 26 25 27 31 35 39 35 38 40 41 38 40 42 44 45 42
54 54 53 54 52 50 49 48 46 42 41 38 37 35 33 30 33 28 24 23 23 22 21 22 22 20 17 20 24 26 27 30 32 34 36 37 39 39 41 40 37 42 43 42 43
57 56 57 55 54 51 49 46 44 40 38 37 36 32 30 30 30 30 24 22 22 23 19 15 16 18 15 18 20 23 25 25 26 30 31 37 37 40 39 39 43 45 42 42 44
44 39 47 52 52 51 47 46 44 41 38 36 36 33 30 31 34 30 31 27 27 26 25 24 19 19 22 23 23 25 26 29 32 33 38 38 35 33 36 41 42 42 45 46 46
46 29 41 39 41 47 44 44 43 41 39 38 38 34 33 32 34 35 32 33 31 29 29 29 22 29 30 30 30 30 35 36 39 38 43 45 47 43 40 43 40 41 46 46 49
34 34 34 45 42 39 40 43 43 42 40 40 40 38 36 35 33 34 40 37 36 40 36 32 29 29 33 36 37 39 39 41 41 45 53 55 55 46 48 50 52 46 43 51 50
65 52 46 40 38 41 40 41 45 44 43 43 42 40 43 39 37 36 39 40 40 39 40 34 36 41 41 44 45 41 46 45 45 47 52 57 58 57 53 55 53 53 51 51 51
71 63 51 48 46 44 44 48 48 48 49 45 46 46 46 45 47 42 45 44 45 44 40 38 45 46 50 45 48 46 48 47 47 33 50 57 62 62 65 60 52 55 60 59 53
57 49 46 46 44 47 51 54 57 53 53 51 50 49 45 51 55 49 53 54 54 51 48 53 53 53 55 52 54 55 53 52 46 49 53 58 61 62 64 62 63 62 64 68 69
59 59 53 52 54 55 53 54 54 56 57 55 55 52 52 51 60 55 61 62 52 48 52 55 54 53 55 52 51 50 51 51 51 55 58 59 65 60 66 64 65 68 69 70 72
61 59 58 57 55 58 56 53 54 56 59 60 55 56 61 58 56 57 57 57 53 54 55 56 56 53 52 51 51 48 50 52 56 58 61 64 67 63 60 61 48 50 58 65 63
68 66 64 64 61 57 56 57 58 58 60 62 62 62 60 59 56 51 49 51 52 54 56 54 46 45 46 50 50 53 54 56 58 61 63 60 68 62 55 56 46 54 59 60 53
70 71 66 69 67 64 62 60 63 57 61 62 65 62 59 57 51 47 47 50 50 50 49 45 47 48 50 50 50 52 53 57 58 58 59 50 53 54 45 46 47 52 57 44 43
68 67 67 67 63 63 62 66 63 61 64 62 58 54 54 52 51 50 46 48 47 47 47 49 53 56 54 55 51 48 50 55 56 54 51 41 44 46 38 43 45 48 46 43 43
71 68 64 62 60 58 57 59 57 58 56 52 54 52 49 50 48 47 46 48 46 47 49 49 50 51 50 49 46 48 48 44 43 43 45 39 27 37 36 42 45 44 44 45 47
67 66 63 61 55 56 57 55 56 59 50 46 47 50 44 47 47 47 47 48 48 46 45 44 41 42 46 49 46 43 40 41 45 45 48 46 46 37 41 54 48 46 49 49 49
67 67 67 61 61 57 56 58 60 47 45 46 47 47 45 44 47 48 48 47 43 44 50 48 46 47 44 45 44 41 41 44 49 48 50 47 40 35 44 40 37 39 40 41 43
66 64 61 58 58 61 62 58 46 45 46 45 45 42 41 40 46 44 44 46 44 43 44 42 45 42 43 45 43 44 44 47 47 46 43 30 14 26 34 38 40 42 39 39 37
64 63 59 56 53 41 57 50 44 44 42 44 39 37 38 36 31 43 45 44 40 41 41 40 41 41 42 43 44 46 47 40 38 38 39 39 33 29 28 38 42 47 40 33 32
63 60 56 54 55 60 52 42 38 40 37 41 40 35 33 34 42 40 41 40 39 39 38 40 42 39 42 43 44 36 28 34 36 33 33 36 29 19 25 38 37 29 26 28 27
63 61 58 55 56 49 43 38 43 40 42 42 38 34 35 40 41 40 39 44 43 42 42 42 42 43 40 35 32 33 31 29 29 29 19 20 26 22 25 23 23 24 25 21 20
66 65 60 55 50 45 49 50 41 41 38 38 36 36 38 38 38 38 40 41 42 39 40 41 43 37 27 28 29 31 21 20 20 21 16 20 25 24 22 21 20 19 12 10 8
72 69 60 54 49 45 47 51 37 35 34 36 35 36 36 36 37 37 39 41 39 37 40 39 29 26 21 22 25 23 26 26 22 16 19 17 23 20 22 21 17 9 4 7 9
75 68 60 53 50 47 48 51 45 36 32 32 35 36 34 35 34 34 39 42 37 36 32 28 22 21 19 16 15 16 17 19 19 20 20 20 24 21 20 14 5 3 6 6 5
73 65 61 55 51 48 45 43 42 37 34 35 34 34 35 32 34 37 37 36 32 30 23 23 21 19 13 15 15 15 13 17 19 19 20 23 19 10 9 6 2 4 4 3 5
Wind_Direction
263 264 265 266 268 269 272 270 272 273 274 276 276 278 282 280 280 279 275 277 281 279 277 275 275 278 277 277 278 277 275 276 272 270 266 268 269 272 273 269 266 264 261 263 262
264 264 266 267 268 270 271 272 271 273 273 273 274 276 276 277 274 277 272 276 280 278 277 274 272 274 278 280 278 279 279 279 274 273 274 276 280 279 276 273 275 275 271 266 264
264 264 265 268 267 268 270 272 272 273 271 269 270 272 271 273 273 273 276 277 278 278 278 278 280 278 279 285 282 278 283 281 280 280 280 279 277 279 280 281 276 273 269 267 269
266 266 267 267 268 269 270 270 271 267 266 266 267 268 271 270 276 272 272 276 278 275 276 278 277 278 285 286 288 287 285 281 280 282 286 284 283 284 286 286 286 281 278 275 272
266 268 268 266 267 268 269 270 267 262 262 263 263 264 267 272 269 275 273 268 268 272 272 274 280 278 280 290 296 301 300 295 296 290 285 286 288 289 293 289 282 281 286 285 278
262 262 267 261 262 264 264 263 261 258 259 260 261 263 262 267 272 273 279 275 272 270 273 280 277 272 283 286 291 302 306 298 295 297 291 293 293 299 297 292 294 291 283 280 281
249 259 265 261 263 260 259 257 254 255 257 259 261 262 266 267 267 277 281 279 279 277 278 282 280 288 288 283 286 294 295 300 301 288 294 299 300 297 292 296 299 296 289 286 284
238 239 250 260 261 262 257 256 255 255 257 259 262 263 267 270 267 271 276 281 284 281 286 282 288 294 291 295 298 298 294 295 287 291 298 299 303 297 298 300 302 298 288 285 282
258 253 251 260 264 262 259 256 256 255 257 259 262 268 267 267 269 275 277 281 284 286 287 283 291 297 298 296 298 296 295 296 293 285 289 296 296 295 294 297 299 293 284 279 281
259 270 276 261 258 258 259 256 259 261 259 261 265 266 268 274 270 272 274 280 283 285 282 283 292 296 299 291 295 293 293 292 287 271 280 293 297 297 296 295 289 284 285 285 277
262 261 263 267 267 260 260 264 262 262 262 262 267 268 270 275 269 278 278 277 280 281 283 286 288 292 294 291 292 293 290 291 286 274 271 277 281 285 282 283 290 286 284 284 284
259 263 258 257 263 263 261 262 265 266 264 264 263 270 273 274 278 283 283 282 279 277 278 282 288 289 284 285 286 285 285 285 285 281 277 275 270 281 275 283 286 284 280 278 279
256 257 260 261 261 260 263 265 268 271 268 266 268 268 268 272 277 280 280 281 280 280 281 284 287 284 283 283 282 283 282 282 282 278 278 280 279 277 279 286 281 279 274 279 278
257 259 260 259 258 259 264 266 268 270 270 271 272 270 277 278 279 278 275 276 280 284 285 285 282 277 277 279 283 285 284 283 282 284 284 281 287 281 285 278 277 264 267 278 274
257 261 259 262 260 261 262 265 266 264 267 270 273 279 283 279 277 274 278 277 279 281 280 282 279 279 276 282 282 285 281 284 285 285 282 286 284 288 282 277 270 263 268 273 281
256 258 257 259 261 262 264 265 266 263 265 270 273 274 281 279 278 279 278 281 279 277 275 277 279 279 282 285 287 287 287 281 279 279 279 287 285 287 289 285 283 281 277 274 278
252 252 254 255 257 256 257 261 258 259 272 272 276 276 280 276 279 281 279 280 280 277 278 279 279 280 284 282 283 283 284 281 279 282 287 288 292 283 276 277 273 275 272 276 280
253 252 248 248 252 252 253 251 250 266 265 270 272 276 276 281 280 280 282 284 282 283 280 280 283 289 286 291 290 282 279 282 287 286 286 281 277 261 263 279 268 272 282 279 280
245 247 251 250 250 247 246 250 255 262 264 264 269 272 275 277 276 280 282 281 282 280 280 284 281 280 286 291 291 279 282 289 285 286 287 287 289 275 279 280 275 274 275 282 281
244 245 244 248 250 251 251 253 259 251 258 261 264 271 274 277 277 278 278 279 278 275 281 283 281 280 285 281 281 284 283 285 285 287 287 289 264 262 280 285 283 282 291 294 296
241 240 239 239 239 240 246 253 256 254 255 256 261 267 271 275 267 278 280 279 277 275 284 286 284 283 279 284 283 285 288 283 276 273 282 282 269 258 258 264 269 273 286 295 294
238 238 236 236 233 235 245 254 247 247 247 248 264 269 271 268 269 272 276 279 277 281 284 281 282 284 281 284 286 284 282 280 281 278 276 269 274 278 268 261 265 278 284 291 295
235 237 234 234 236 238 235 235 245 249 247 255 259 263 261 267 269 271 271 274 281 281 277 280 284 287 286 280 273 276 275 276 268 266 278 259 256 251 264 278 268 270 284 290 297
231 232 230 231 236 236 239 238 248 243 252 257 260 259 261 265 269 269 270 274 277 278 278 280 283 286 279 270 272 265 256 264 269 266 266 264 259 256 263 275 272 280 278 300 302
229 230 231 233 235 236 234 246 237 251 248 250 254 257 263 264 271 271 269 272 274 278 274 279 282 269 271 265 270 266 270 274 270 266 271 266 270 267 269 282 277 270 309 301 342
227 228 230 234 230 230 236 235 253 247 249 254 254 259 260 263 268 270 269 275 279 273 275 273 265 266 261 259 259 266 271 270 263 268 276 269 263 278 279 271 222 278 305 313 3
225 227 229 230 231 232 234 235 243 235 249 247 253 254 257 267 266 268 279 276 272 271 257 260 258 257 237 253 268 278 263 259 277 289 273 268 274 268 258 216 229 293 301 325 6